Location: Il Ritiro
(43.4167°N, 13.1333°E)
Time: 07:49:24
(UTC+00:00)

SAR-Lupe-2 - Pass Details

Date: 05 July 2020
Orbit: 481 x 485 km, 98.1° (Epoch: 01 August)

Event Time Altitude Azimuth Distance (km) Brightness Sun altitude
Rises 20:05:31 0° 19° (NNE) 2,563 7.6 -11.2°
Reaches altitude 10° 20:07:40 10° 26° (NNE) 1,677 6.6 -11.5°
Maximum altitude 20:11:08 44° 100° (E) 680 3.9 -11.9°
Enters shadow 20:13:43 16° 168° (SSE) 1,331 5.3 -12.2°
